www.pogodaiklimat.ru

Погода и климат >> Архив погоды >> Китай >> Ejin Qi


ПОГОДА в Ejin Qi

  • Прогноз погоды в Ejin Qi
  • Монитор погоды в Ejin Qi
  • Климат города

АРХИВ ПОГОДЫ в Ejin Qi

Время (UTC), дата Ветер
(напр.,м/с)
 
Видим.   Явления Облачность Т
(С)
Тd
(С)
f
(%)
Тe
(С)
Тes
(С)
Комфортность P
(гПа)
Po
(гПа)
Тmin
(С)
Tmax
(С)
R
(мм)
R24
(мм)
S
(см)
03 14.10 ЮЗ 1 30 км ясно +9.8 -12.1 20 +10 +16 1023.9 876.3
06 14.10 З 2 30 км ясно +15.6 -10.9 15 +16 +24 1021.4 912.6 +1.9
09 14.10 С 2 30 км ясно +17.0 -10.7 14 +17 +19 1020.6 1021.0
12 14.10 штиль 0 7000 м ясно +9.4 -6.9 31 +9 +9 1023.5 913.0
15 14.10 С 1 30 км ?/? +8.2 -12.3 22 +8 +8 1023.9 877.5
18 14.10 ЮВ 1 30 км ?/? +4.1 -10.7 33 +4 +4 1024.0 914.8 +17.5
21 14.10 В 1 30 км ?/? +1.8 -12.4 34 +1 +1 1024.9 1025.0
00 15.10 В 2 30 км ясно +1.9 -10.0 41 -1 -1 1028.3 917.1
03 15.10 В 4 30 км ясно +9.8 -12.1 20 +8 +11 1028.4 880.8
06 15.10 В 3 30 км ясно +15.5 -12.8 13 +15 +22 1026.5 917.0 +1.4
09 15.10 В 2 30 км ясно +17.1 -16.0 9 +18 +19 1025.5 1026.0
12 15.10 В 2 30 км ясно +10.8 -10.7 21 +10 +10 1028.0 917.1
15 15.10 В 2 30 км ?/? +8.2 -10.7 25 +7 +7 1028.1 881.0
18 15.10 В 4 30 км ?/? +8.5 -13.2 20 +6 +6 1026.2 917.5 +17.1
21 15.10 В 3 30 км ?/? +5.4 -12.6 26 +3 +3 1025.7 1026.0
00 16.10 В 3 30 км ясно +4.2 -11.8 30 +2 +2 1028.1 917.6
03 16.10 В 5 30 км ясно +11.6 -13.4 16 +10 +12 1027.2 880.3
06 16.10 В 3 21 км 9/9
[]
+18.1 -10.7 13 +18 +19 1022.5 914.7 +3.6
09 16.10 В 2 30 км 9/9
[]
+18.9 -12.2 11 +19 +19 1021.2 1021.0
12 16.10 СВ 1 22 км 8/8
[]
+13.4 -9.1 20 +14 +14 1023.4 913.9
15 16.10 В 2 30 км ?/? +11.1 -11.0 20 +11 +11 1023.1 877.9
18 16.10 В 2 30 км ?/? +9.4 -13.7 18 +9 +9 1021.0 913.5 +19.2
21 16.10 В 2 30 км ?/? +6.0 -16.5 18 +5 +5 1020.7 1021.0
00 17.10 СВ 2 30 км 9/9
[]
+5.8 -14.8 21 +4 +4 1022.5 913.4
03 17.10 В 3 23 км 9/9
[]
+13.1 -8.7 21 +12 +13 1022.2 877.0
06 17.10 В 2 21 км 9/9
[]
+18.1 -0.7 28 +19 +19 1019.9 912.5 +5.7
09 17.10 С 1 30 км 8/8 2000 м
[]
+18.6 -1.3 26 +20 +20 1019.9 1020.0
12 17.10 штиль 0 8000 м 3/3
[]
+11.9 +0.4 45 +12 +12 1022.5 913.1
15 17.10 Ю 1 9000 м ?/? +9.1 -0.2 52 +9 +9 1022.2 876.9
18 17.10 ЮВ 1 30 км ?/? +9.3 -0.3 51 +9 +9 1019.8 912.4 +19.3
21 17.10 В 2 24 км ?/? +6.7 +0.8 66 +5 +5 1019.9 1020.0
00 18.10 Ю 1 27 км 6/6
[]
+5.4 -1.7 60 +5 +5 1022.4 912.9
03 18.10 Ю 2 30 км 9/9
[]
+12.6 +1.6 47 +12 +13 1022.2 876.7
06 18.10 СЗ 1 30 км 3/3
[]
+19.2 +0.8 29 +20 +27 1018.9 911.8 +5.1
09 18.10 Ю 1 30 км ясно +20.4 -0.3 25 +22 +23 комфорт 1017.5 1018.0
12 18.10 ЮВ 2 29 км ясно +15.9 -0.3 33 +16 +16 1018.5 910.2
15 18.10 Ю 3 30 км ?/? +13.1 -0.2 40 +12 +12 1017.4 873.7
18 18.10 ЮВ 2 30 км ?/? +9.8 -0.4 49 +9 +9 1015.0 908.4 +20.8
21 18.10 В 2 30 км ?/? +7.3 +1.4 66 +5 +5 1014.0 1014.0
00 19.10 В 1 27 км 3/3
[]
+6.4 +1.5 71 +6 +6 1016.1 908.2
03 19.10 ЮВ 3 30 км ясно +13.9 +4.2 52 +13 +17 1016.0 872.6
06 19.10 В 3 30 км ясно +19.8 +2.6 32 +20 +27 1013.9 907.5 +6.1
09 19.10 Ю 2 30 км ясно +21.9 -2.7 19 +21 +22 комфорт 1013.0 1013.0
12 19.10 В 1 13 км ясно +13.1 +0.2 41 +14 +14 1016.4 908.0
15 19.10 ЮВ 1 14 км ?/? +9.9 +0.5 52 +10 +10 1017.1 873.7
18 19.10 ЮВ 2 30 км ?/? +11.8 -2.8 36 +11 +11 1016.4 910.1 +22.2
21 19.10 штиль 0 30 км ?/? +5.7 -1.0 62 +5 +5 1017.2 1017.0
00 20.10 З 2 30 км ясно +5.4 -3.9 51 +3 +3 1020.6 911.5
03 20.10 З 6 8000 м ясно +13.3 -4.3 29 +11 +13 1022.7 876.2
06 20.10 З 3 30 км 6/6
[]
+19.0 -3.2 22 +19 +22 1019.1 912.4 +5.0
09 20.10 З 3 30 км 9/9 2000 м
[]
+18.1 -4.6 21 +18 +18 1020.5 1021.0
12 20.10 З 3 30 км 9/9 2000 м
[]
+14.2 -2.2 32 +14 +14 1023.0 913.9
15 20.10 З 2 30 км ?/? +12.3 -3.9 32 +12 +12 1023.7 1024.0
18 20.10 З 4 30 км н/о +10.0 -7.2 29 +8 +8 1022.8 915.4 +20.2
21 20.10 З 4 30 км ?/? +8.0 -8.5 30 +6 +6 1023.3 1023.0
00 21.10 З 4 30 км ясно +6.3 -8.8 33 +3 +3 1025.0 915.8

 

Местоположение метеостанции Ejin Qi (Китай): широта 41.95 долгота 101.06 высота над уровнем моря 941 м.

В архиве по умолчанию представлена погода в Ejin Qi за последнюю неделю. Архивные данные за месяц целиком и за предыдущие месяцы, начиная с января 2011 года, Вы можете получить, выбрав интересующий диапазон дат из раскрывающегося списка и нажав кнопку "Ввод!".

Внимание! Время в таблицах - всемирное. Для получения местного времени необходимо прибавить поправку, которая в Ejin Qi равна 8 ч.

Смотрите также архив погоды в соседних городах и на ближайших метеорологических станциях:

Погода в Guai Zi Hu (Китай) (126 км)
Погода в Shine Usa (Монголия) (127 км)
Погода в Bogd (Монголия) (313 км)
Погода в Bayan Mod (Китай) (317 км)
Погода в Jiuquan (Китай) (325 км)
Погода в Dalanzadgad (Монголия) (328 км)
Погода в Mazong Shan (Китай) (334 км)
Погода в Zhangye (Китай) (340 км)
Погода в Amarbuyantayn (Монголия) (353 км)
Погода в Yumen Zhen (Китай) (386 км)

Пояснения к столбцам:

Ветер - указаны скорость ветра в м/с - средняя за 10 мин, порывы в срок и между сроками (в фигурных скобках) и направление, откуда дует ветер: С - северный, СВ - северо-восточный, В - восточный, ЮВ - юго-восточный, Ю - южный, ЮЗ - юго-западный, З - западный, СЗ - северо-западный.
Видимость - горизонтальная дальность видимости в метрах или километрах. При видимости от 1 до 10 км при отсутствии осадков обычно наблюдается дымка, при ухудшении видимости до 1 км и менее - туман. В сухую погоду видимость может ухудшаться дымом, пылью или мглою.
Явления - указаны атмосферные явления, наблюдавшиеся в срок или в последний час перед сроком; фигурными скобками обозначены явления, наблюдавшиеся между сроками (за 1-3 часа до срока); квадратными скобками обозначены град или гололедные отложения с указанием их диаметра в мм.
Облачность - указаны через наклонную черту общая и нижняя облачность в баллах и высота нижней границы облаков в метрах; квадратными скобками обозначены формы облаков: Ci - перистые, Cs - перисто-слоистые, Cc - перисто-кучевые, Ac - высококучевые, As - высокослоистые, Sc - слоисто-кучевые, Ns - слоисто-дождевые, Cu - кучевые, Cb - кучево-дождевые. Подробнее классификацию облаков см. в Атласе облаков (PDF).
T - Температура воздуха - температура, измеренная на высоте 2 м над землей.
Td - Температура точки росы - температура, при понижении до которой содержащийся в воздухе водяной пар достигнет насыщения.
f - Относительная влажность воздуха - влажноcть воздуха, измеренная на высоте 2 м над землей.
Te - Эффективная температура - температура, которую ощущает одетый по сезону человек в тени. Характеристика душности погоды. При расчете учитывается влияние влажности воздуха и скорости ветра на теплоощущения человека.
Tes - Эффективная температура на солнце - температура, которую ощущает человек, с поправкой на солнечный нагрев. Характеристика знойности погоды. Зависит от высоты солнца над горизонтом, облачности и скорости ветра. Ночью, в пасмурную погоду, а также при ветре 12 м/с и более поправка равна нулю.
P - Атмосферное давление - приведенное к уровню моря атмосферное давление.
Po - Атмосферное давление - измеренное на уровне метеостанции атмосферное давление.
Tmin - Минимальная температура - минимум температуры воздуха на высоте 2 м над землей.
Tmax - Максимальная температура - максимум температуры воздуха на высоте 2 м над землей.
R - Количество осадков - Количество выпавших осадков за период времени, мм. При наведении курсора мыши на число - период времени, за который выпало указанное количество осадков.
R24 - Количество осадков - Количество выпавших осадков за 24 часа, мм.
S - Снежный покров - Высота снежного покрова, см. При наведении курсора мыши на число - состояние снежного покрова и степень покрытия местности в баллах.